Back to catalog

FENGYUN 1C DEB

AliveLEO
NORAD 30622·DEBRIS·🇨🇳 China

Launched May 10, 1999 from Taiyuan Satellite Launch Center

Loading…

Next Passes (next 24 hours)

TLE

FreshSource: Space-Track

Epoch: Sep 14, 2026, 04:42 UTC

1 30622U 99025AND 26257.19593700  .00004068  00000-0  14136-2 0  9999
2 30622 100.9927 347.3914 0066076 345.8529  44.4275 14.35047331727446

Track FENGYUN 1C DEB in real time with AllMySat

Download on the App Store